Regional Weather Roundup
Issued by NWS

Home | Current Version | Previous Version | Graphics & Text | Print | Product List | Glossary Off
Versions: 1 2 3 4 5 6 7 8 9 10 11 12 13 14 15 16 17 18 19 20 21 22 23 24 25 26 27 28 29 30 31 32 33 34 35 36 37 38 39 40 41 42 43 44 45 46 47 48 49 50

000
ASUS43 KTOP 230308
RWRKS

WEATHER ROUNDUP FOR KANSAS
NATIONAL WEATHER SERVICE GOODLAND KS
1000 PM CDT MON SEP 22 2014

NOTE:  "FAIR" INDICATES FEW OR NO CLOUDS BELOW 12,000 FEET WITH NO
SIGNIFICANT WEATHER AND/OR OBSTRUCTIONS TO VISIBILITY.

KSZ001>006-013>018-027>032-041>047-230400-
NORTHWEST KANSAS

CITY           SKY/WX    TMP DP  RH WIND       PRES   REMARKS
GOODLAND       CLOUDY    67  50  54 S18       30.10R
HAYS           MOCLDY    68  45  42 SE14      30.14F
HILL CITY      CLOUDY    66  50  56 SE10      30.12S
RUSSELL        MOCLDY    65  48  54 SE13      30.14S
$$

KSZ061>065-074>080-084>089-230400-
SOUTHWEST KANSAS

CITY           SKY/WX    TMP DP  RH WIND       PRES   REMARKS
DODGE CITY     MOCLDY    70  43  37 SE17      30.17S
ELKHART          N/A     69  56  63 S12         N/A
GARDEN CITY    MOCLDY    68  49  50 SE14      30.14R
GREAT BEND     MOCLDY    68  45  42 S13       30.17S
LIBERAL        CLOUDY    72  48  43 S12       30.17S
PRATT          PTCLDY    68  39  34 S9        30.20R
$$

KSZ066>073-081>083-090>101-230400-
SOUTHEAST KANSAS

CITY           SKY/WX    TMP DP  RH WIND       PRES   REMARKS
CHANUTE        PTCLDY    59  54  83 CALM      30.23R
COFFEYVILLE    PTCLDY    59  56  89 CALM      30.22R
HUTCHINSON     MOCLDY    65  49  56 SE10      30.19S
MEDICINE LODGE   N/A     69  44  40 SE9       30.18S
NEWTON         PTCLDY    59  45  58 SE6       30.23R
PARSONS        PTCLDY    57  55  93 CALM      30.23S
WICHITA INTL   MOCLDY    66  47  50 SE8       30.20R
WICHITA JABRA  PTCLDY    64  49  57 SE9       30.21R
WICHITA MCCONL MOCLDY    65  47  52 E10       30.21R
WINFIELD       MOCLDY    63  51  65 E8        30.22S
$$

KSZ007>012-019>026-033>040-048>060-102>105-230400-
NORTHEAST KANSAS

CITY           SKY/WX    TMP DP  RH WIND       PRES   REMARKS
CONCORDIA      MOCLDY    61  51  70 SE8       30.18S
EMPORIA        MOCLDY    59  53  80 SE8       30.22S
LAWRENCE       MOCLDY    56  52  86 CALM      30.22S
MANHATTAN      PTCLDY    63  52  67 CALM      30.21R
MARYSVILLE     MOCLDY    59  50  72 CALM      30.21R
OLATHE IND     MOCLDY    62  52  69 SE8       30.24S
OLATHE EXE     MOCLDY    61  52  72 SE5       30.23S
SALINA         PTCLDY    66  49  54 SE12      30.19R
TOPEKA BILLARD MOCLDY    59  53  80 CALM      30.22S
TOPEKA FORBES  MOCLDY    59  52  77 SE3       30.22S
$$


USA.gov is the U.S. government's official web portal to all federal, state and local government web resources and services.